Location: Unspecified
(44.0704°N, 88.6889°W)
Time: 14:22:55
(UTC+01:00)

Okean 3 - Pass Details

Date: 09 October 2020
Orbit: 575 x 602 km, 82.5° (Epoch: 26 October)

Event Time Altitude Azimuth Distance (km) Brightness Sun altitude
Exits shadow 13:07:26 12° 294° (WNW) 1,779 5.4 -10.7°
Drops below altitude 10° 13:09:07 10° 318° (NW) 1,925 5.7 -10.4°
Sets 13:12:38 0° 349° (N) 2,825 6.8 -9.8°
